• In Portugal
  • List of Countries
  • For 7 days
  • Water Temperature
  • Satellite Maps
  • Weather Map
  • Weather Widgets
  • user-avatar
    Login

    Hourly Weather Djelfa

    Today, 23 June, Saturday

    Time Temperature Precipitation Wind Pressure Humidity
    00:00 +27°C° 0 mm 2 mps 668 mmHg 27%
    01:00 +27°C° 0.2 mm 2 mps 667 mmHg 30%
    02:00 +26°C° 0.2 mm 2 mps 667 mmHg 33%
    03:00 +25°C° 0.2 mm 2 mps 667 mmHg 36%
    04:00 +26°C° 0 mm 2 mps 667 mmHg 35%
    05:00 +26°C° 0 mm 2 mps 667 mmHg 34%
    06:00 +26°C° 0 mm 2 mps 667 mmHg 32%
    07:00 +27°C° 0 mm 1 mps 668 mmHg 29%
    08:00 +29°C° 0 mm 1 mps 668 mmHg 26%
    09:00 +30°C° 0 mm 1 mps 668 mmHg 23%
    10:00 +31°C° 0 mm 1 mps 668 mmHg 21%
    11:00 +32°C° 0 mm 2 mps 669 mmHg 18%
    12:00 +34°C° 0 mm 2 mps 669 mmHg 16%
    13:00 +35°C° 0 mm 3 mps 669 mmHg 15%
    14:00 +35°C° 0 mm 5 mps 668 mmHg 14%
    15:00 +36°C° 0 mm 6 mps 668 mmHg 13%
    16:00 +35°C° 0 mm 6 mps 668 mmHg 14%
    17:00 +35°C° 0 mm 6 mps 668 mmHg 15%
    18:00 +34°C° 0 mm 7 mps 668 mmHg 15%
    19:00 +33°C° 0.2 mm 5 mps 668 mmHg 17%
    20:00 +32°C° 0.2 mm 4 mps 668 mmHg 19%
    21:00 +30°C° 0.2 mm 3 mps 668 mmHg 21%
    22:00 +29°C° 0.2 mm 3 mps 668 mmHg 23%
    23:00 +28°C° 0.2 mm 3 mps 668 mmHg 26%

    Tomorrow, 24 June, Sunday

    Time Temperature Precipitation Wind Pressure Humidity
    00:00 +27°C° 0.2 mm 3 mps 668 mmHg 28%
    01:00 +27°C° 0 mm 3 mps 668 mmHg 29%
    02:00 +27°C° 0 mm 2 mps 667 mmHg 30%
    03:00 +27°C° 0 mm 1 mps 667 mmHg 31%
    04:00 +27°C° 0 mm 1 mps 667 mmHg 30%
    05:00 +27°C° 0 mm 1 mps 667 mmHg 30%
    06:00 +27°C° 0 mm 1 mps 667 mmHg 29%
    07:00 +29°C° 0 mm 1 mps 668 mmHg 26%
    08:00 +30°C° 0 mm 2 mps 668 mmHg 23%
    09:00 +31°C° 0 mm 2 mps 668 mmHg 20%
    10:00 +34°C° 0 mm 3 mps 669 mmHg 18%
    11:00 +35°C° 0 mm 3 mps 669 mmHg 16%
    12:00 +36°C° 0 mm 4 mps 669 mmHg 14%
    13:00 +37°C° 0 mm 5 mps 668 mmHg 13%
    14:00 +37°C° 0 mm 5 mps 668 mmHg 12%
    15:00 +39°C° 0 mm 5 mps 668 mmHg 11%
    16:00 +37°C° 0 mm 5 mps 667 mmHg 12%
    17:00 +37°C° 0 mm 5 mps 667 mmHg 13%
    18:00 +36°C° 0 mm 5 mps 667 mmHg 13%
    19:00 +35°C° 0 mm 4 mps 667 mmHg 15%
    20:00 +34°C° 0 mm 4 mps 667 mmHg 18%
    21:00 +32°C° 0 mm 4 mps 667 mmHg 20%
    22:00 +31°C° 0 mm 3 mps 667 mmHg 22%
    23:00 +30°C° 0 mm 3 mps 667 mmHg 24%

    Day after tomorrow, 25 June, Monday

    Time Temperature Precipitation Wind Pressure Humidity
    00:00 +29°C° 0 mm 2 mps 666 mmHg 26%
    01:00 +29°C° 0 mm 2 mps 666 mmHg 27%
    02:00 +28°C° 0 mm 2 mps 666 mmHg 29%
    03:00 +28°C° 0 mm 1 mps 666 mmHg 30%
    04:00 +28°C° 0 mm 1 mps 666 mmHg 30%
    05:00 +28°C° 0 mm 2 mps 666 mmHg 30%
    06:00 +28°C° 0 mm 2 mps 666 mmHg 30%
    07:00 +29°C° 0 mm 2 mps 666 mmHg 26%
    08:00 +31°C° 0 mm 2 mps 667 mmHg 22%
    09:00 +33°C° 0 mm 3 mps 667 mmHg 18%
    10:00 +34°C° 0 mm 3 mps 667 mmHg 17%
    11:00 +35°C° 0 mm 4 mps 668 mmHg 15%
    12:00 +36°C° 0 mm 4 mps 668 mmHg 13%
    13:00 +37°C° 0 mm 5 mps 668 mmHg 13%
    14:00 +37°C° 0 mm 5 mps 667 mmHg 12%
    15:00 +38°C° 0 mm 6 mps 667 mmHg 12%
    16:00 +38°C° 0 mm 6 mps 667 mmHg 13%
    17:00 +36°C° 0 mm 7 mps 667 mmHg 14%
    18:00 +35°C° 0 mm 7 mps 667 mmHg 16%
    19:00 +34°C° 0 mm 7 mps 667 mmHg 18%
    20:00 +33°C° 0 mm 7 mps 667 mmHg 21%
    21:00 +30°C° 0 mm 6 mps 667 mmHg 23%
    22:00 +29°C° 0 mm 5 mps 667 mmHg 25%
    23:00 +28°C° 0 mm 4 mps 667 mmHg 27%

    26 June, Tuesday

    Time Temperature Precipitation Wind Pressure Humidity
    00:00 +27°C° 0 mm 2 mps 667 mmHg 29%
    01:00 +26°C° 0 mm 2 mps 667 mmHg 31%
    02:00 +26°C° 0 mm 1 mps 667 mmHg 32%
    03:00 +25°C° 0 mm 1 mps 666 mmHg 34%
    04:00 +25°C° 0 mm 1 mps 667 mmHg 33%
    05:00 +25°C° 0 mm 1 mps 667 mmHg 32%
    06:00 +26°C° 0 mm 1 mps 667 mmHg 30%
    07:00 +27°C° 0 mm 1 mps 667 mmHg 28%
    08:00 +28°C° 0 mm 2 mps 668 mmHg 27%
    09:00 +29°C° 0 mm 2 mps 668 mmHg 25%
    10:00 +30°C° 0 mm 3 mps 668 mmHg 23%
    11:00 +32°C° 0 mm 4 mps 668 mmHg 22%
    12:00 +34°C° 0 mm 4 mps 668 mmHg 20%
    13:00 +34°C° 0 mm 5 mps 668 mmHg 19%
    14:00 +35°C° 0 mm 5 mps 667 mmHg 18%
    15:00 +35°C° 0 mm 6 mps 667 mmHg 17%
    16:00 +35°C° 0 mm 6 mps 667 mmHg 18%
    17:00 +34°C° 0 mm 6 mps 667 mmHg 19%
    18:00 +34°C° 0 mm 6 mps 667 mmHg 20%
    19:00 +32°C° 0 mm 6 mps 667 mmHg 22%
    20:00 +30°C° 0 mm 6 mps 667 mmHg 25%
    21:00 +29°C° 0 mm 5 mps 667 mmHg 27%
    22:00 +28°C° 0 mm 4 mps 667 mmHg 29%
    23:00 +27°C° 0 mm 3 mps 667 mmHg 31%

    27 June, Wednesday

    Time Temperature Precipitation Wind Pressure Humidity
    00:00 +26°C° 0 mm 3 mps 667 mmHg 33%
    01:00 +26°C° 0 mm 2 mps 666 mmHg 35%
    02:00 +25°C° 0 mm 1 mps 666 mmHg 37%
    03:00 +24°C° 0 mm 1 mps 666 mmHg 39%
    04:00 +25°C° 0 mm 1 mps 666 mmHg 37%
    05:00 +25°C° 0 mm 1 mps 666 mmHg 36%
    06:00 +25°C° 0 mm 1 mps 666 mmHg 35%
    07:00 +26°C° 0 mm 1 mps 667 mmHg 32%
    08:00 +27°C° 0 mm 1 mps 667 mmHg 30%
    09:00 +29°C° 0 mm 1 mps 667 mmHg 28%
    10:00 +30°C° 0 mm 2 mps 667 mmHg 25%
    11:00 +31°C° 0 mm 2 mps 667 mmHg 23%
    12:00 +32°C° 0 mm 2 mps 667 mmHg 20%
    13:00 +34°C° 0 mm 2 mps 667 mmHg 19%
    14:00 +34°C° 0 mm 2 mps 667 mmHg 18%
    15:00 +35°C° 0 mm 2 mps 667 mmHg 17%
    16:00 +34°C° 0.4 mm 3 mps 666 mmHg 18%
    17:00 +34°C° 0.4 mm 3 mps 666 mmHg 20%
    18:00 +33°C° 0.4 mm 3 mps 666 mmHg 21%
    19:00 +32°C° 0.4 mm 4 mps 666 mmHg 24%
    20:00 +30°C° 0.4 mm 4 mps 666 mmHg 27%
    21:00 +29°C° 0.4 mm 4 mps 666 mmHg 29%
    22:00 +28°C° 0.2 mm 5 mps 666 mmHg 32%
    23:00 +28°C° 0.2 mm 5 mps 666 mmHg 34%

    28 June, Thursday

    Time Temperature Precipitation Wind Pressure Humidity
    00:00 +27°C° 0.2 mm 5 mps 665 mmHg 36%
    01:00 +26°C° 0.1 mm 4 mps 665 mmHg 36%
    02:00 +26°C° 0.1 mm 4 mps 665 mmHg 37%
    03:00 +25°C° 0.1 mm 3 mps 665 mmHg 38%
    04:00 +26°C° 0 mm 3 mps 665 mmHg 37%
    05:00 +26°C° 0 mm 4 mps 665 mmHg 36%
    06:00 +26°C° 0 mm 4 mps 665 mmHg 35%
    07:00 +27°C° 0 mm 6 mps 665 mmHg 32%
    08:00 +29°C° 0 mm 7 mps 666 mmHg 29%
    09:00 +31°C° 0 mm 8 mps 666 mmHg 26%
    10:00 +32°C° 0 mm 8 mps 666 mmHg 23%
    11:00 +34°C° 0 mm 9 mps 666 mmHg 21%
    12:00 +35°C° 0 mm 9 mps 665 mmHg 19%
    13:00 +35°C° 0 mm 9 mps 665 mmHg 17%
    14:00 +37°C° 0 mm 10 mps 665 mmHg 16%
    15:00 +38°C° 0 mm 10 mps 664 mmHg 15%
    16:00 +37°C° 0 mm 10 mps 664 mmHg 15%
    17:00 +37°C° 0 mm 10 mps 664 mmHg 14%
    18:00 +37°C° 0 mm 11 mps 663 mmHg 14%
    19:00 +36°C° 0 mm 11 mps 663 mmHg 16%
    20:00 +34°C° 0 mm 12 mps 663 mmHg 18%
    21:00 +33°C° 0 mm 13 mps 663 mmHg 19%
    22:00 +31°C° 0 mm 12 mps 663 mmHg 22%
    23:00 +29°C° 0 mm 10 mps 663 mmHg 25%
    Show more